Vorticity
5 4 6 7 7 8 10 20 23 20 13 9 -4 2 11 -1 5 4 5 5 7 5 4 4 7 6 5 5 4 4 3 3 3 4 6 6 6 6 5 5 5 4 4
5 5 6 6 7 8 9 10 18 23 21 16 13 10 -2 18 4 2 1 4 4 7 6 4 4 6 7 5 4 5 4 4 3 5 6 6 6 6 5 4 4 4 4
6 6 7 6 7 8 9 8 9 17 24 25 20 5 29 5 0 2 -0 3 2 4 6 6 4 4 4 7 6 4 3 4 5 6 6 6 6 6 5 4 4 4 4
7 7 7 7 7 8 10 8 9 8 16 23 21 24 -10 14 -8 13 -2 18 8 -4 2 4 7 5 4 3 6 6 5 4 4 5 5 6 6 6 5 4 4 4 4
7 7 7 7 7 7 7 10 7 10 9 12 19 27 23 6 -2 13 8 -9 -6 -1 17 1 5 6 6 5 4 5 6 5 5 5 5 5 5 6 6 5 4 4 4
6 7 7 8 8 7 7 5 9 11 12 12 11 16 31 16 21 4 6 6 12 8 2 -1 -6 6 7 7 8 5 4 5 6 6 5 4 5 5 6 6 5 4 4
7 7 7 8 7 8 6 6 4 7 9 16 20 15 15 32 23 15 8 12 21 9 5 14 14 2 9 10 6 8 9 7 5 4 6 6 5 5 4 5 5 5 4
8 8 8 8 8 6 6 4 3 4 6 9 11 14 16 15 24 37 10 8 12 -4 19 20 27 25 4 8 13 8 6 7 6 6 5 5 5 5 5 4 4 4 5
9 9 8 8 9 8 7 5 4 4 4 4 3 13 11 15 19 19 13 6 9 15 16 -21 -10 4 19 60 -3 0 8 6 9 6 6 6 5 5 5 5 5 4 4
8 8 9 8 9 8 6 5 4 3 4 4 5 7 16 15 7 6 9 19 26 16 8 13 22 4 -0 7 -19 34 -11 -1 6 11 9 9 8 7 6 4 6 6 5
8 8 8 8 8 7 6 5 4 4 5 5 4 6 6 13 20 11 10 16 10 -5 -11 -7 8 6 2 7 9 31 35 -0 -3 2 7 9 11 5 7 8 6 5 6
8 8 7 7 8 7 7 5 5 4 5 5 4 5 6 6 13 20 1 -15 -28 -2 2 13 14 19 14 24 11 5 11 33 33 -13 -8 6 11 10 8 5 6 6 7
9 8 7 6 6 7 7 6 5 4 5 5 5 6 6 6 7 7 15 20 21 14 11 11 15 15 16 16 15 8 -10 -4 32 24 4 -3 -3 9 11 8 7 6 5
9 8 7 6 7 6 6 5 4 4 5 5 6 7 7 7 7 7 6 6 6 6 6 6 5 6 7 9 11 9 20 41 8 9 39 14 -14 -7 -6 7 9 7 6
7 6 6 6 7 6 6 5 4 5 5 6 6 7 8 8 8 8 8 8 9 9 5 5 2 5 5 4 4 6 5 18 13 21 8 16 9 13 18 11 7 11 8
8 8 6 6 6 6 6 5 4 4 4 5 6 7 7 7 7 8 8 8 8 7 8 8 10 6 5 6 5 5 4 5 15 17 14 4 19 6 14 11 9 3 10
8 7 6 5 6 6 6 6 5 4 4 5 6 7 7 7 6 5 4 4 6 7 8 8 10 10 9 5 7 8 6 5 5 5 6 15 15 16 2 18 15 -19 23
8 8 8 6 5 5 5 6 5 4 3 4 4 6 7 7 6 5 4 5 6 5 5 6 7 12 11 8 9 7 4 5 4 4 4 10 9 8 25 22 2 31 -6
5 6 7 8 6 5 5 6 6 5 3 3 3 5 5 6 5 5 5 6 7 6 5 6 6 6 4 9 11 10 11 7 4 5 4 3 3 6 6 8 30 29 11
7 6 6 7 7 6 5 6 6 5 4 3 4 5 6 6 6 5 5 5 4 4 4 6 8 8 10 10 8 8 13 14 11 7 10 5 7 3 9 11 10 22 18
6 6 6 6 6 5 6 6 5 4 4 4 5 5 5 6 6 6 7 6 5 5 5 4 5 6 6 8 8 9 11 11 14 17 7 7 8 4 0 6 9 10 22
6 6 7 6 6 5 5 6 5 5 5 6 6 6 6 6 6 5 6 7 8 7 5 5 6 7 4 8 10 8 11 6 8 11 15 17 -0 3 6 6 10 13 13
8 6 7 6 5 5 5 5 5 6 5 5 5 5 6 7 7 6 6 5 5 6 5 6 7 6 6 7 6 3 2 7 8 9 7 15 25 7 -0 2 6 6 15
9 8 5 5 5 4 4 5 5 4 5 5 6 6 6 6 6 7 6 5 4 5 5 5 3 4 6 8 9 10 8 4 3 6 8 9 10 18 19 -3 -2 3 8
9 7 5 3 3 5 5 7 5 6 6 6 7 6 5 5 7 6 7 6 5 6 5 2 5 6 6 6 10 7 5 9 7 7 7 11 9 11 15 20 5 -3 3
7 4 4 6 6 6 9 10 8 7 6 9 9 8 7 7 7 7 9 6 5 5 4 2 3 4 8 8 6 4 7 4 6 7 11 9 3 9 9 7 20 9 -3
Height
3173 3172 3171 3169 3167 3165 3163 3161 3161 3161 3162 3165 3168 3171 3173 3173 3174 3175 3175 3176 3176 3176 3176 3175 3174 3174 3174 3174 3176 3176 3175 3175 3174 3173 3172 3170 3171 3170 3170 3169 3167 3166 3165
3173 3172 3170 3169 3167 3165 3163 3161 3159 3158 3158 3160 3162 3166 3169 3170 3171 3173 3173 3174 3174 3175 3175 3174 3174 3173 3173 3173 3174 3173 3174 3173 3172 3172 3171 3171 3170 3168 3167 3167 3166 3164 3163
3173 3172 3170 3169 3168 3166 3164 3162 3160 3158 3156 3156 3158 3161 3164 3166 3168 3169 3170 3171 3172 3172 3173 3173 3173 3173 3173 3173 3173 3173 3172 3172 3171 3170 3169 3168 3168 3168 3166 3165 3164 3163 3161
3171 3170 3169 3168 3167 3166 3164 3162 3160 3157 3155 3154 3154 3156 3159 3161 3163 3164 3167 3166 3167 3170 3169 3170 3171 3171 3171 3172 3172 3172 3172 3171 3170 3169 3168 3167 3166 3166 3166 3164 3162 3161 3159
3169 3168 3168 3167 3166 3165 3164 3162 3160 3157 3155 3153 3151 3151 3153 3156 3159 3161 3161 3164 3163 3164 3165 3167 3168 3169 3168 3168 3169 3170 3170 3169 3168 3167 3166 3166 3166 3165 3164 3163 3162 3160 3159
3166 3166 3166 3165 3164 3164 3163 3161 3159 3157 3155 3153 3150 3149 3148 3150 3152 3157 3158 3159 3159 3158 3160 3163 3165 3165 3166 3165 3164 3165 3166 3166 3166 3165 3164 3164 3164 3164 3163 3162 3161 3159 3157
3165 3164 3163 3164 3163 3162 3161 3160 3158 3156 3154 3152 3151 3148 3147 3146 3146 3150 3153 3155 3156 3153 3157 3157 3157 3159 3161 3162 3161 3161 3161 3161 3161 3161 3161 3161 3161 3161 3161 3160 3159 3158 3156
3161 3162 3162 3162 3161 3160 3160 3159 3157 3155 3154 3152 3149 3147 3145 3145 3144 3145 3147 3151 3153 3154 3152 3155 3155 3156 3156 3157 3158 3156 3156 3156 3155 3156 3157 3157 3157 3158 3158 3157 3156 3154 3153
3159 3159 3160 3159 3159 3159 3158 3156 3155 3154 3152 3150 3147 3145 3143 3144 3142 3142 3144 3147 3149 3151 3150 3151 3153 3155 3154 3153 3153 3152 3152 3152 3151 3151 3152 3152 3152 3152 3153 3153 3152 3151 3150
3157 3157 3157 3157 3157 3157 3156 3156 3155 3153 3151 3150 3147 3145 3143 3142 3140 3140 3141 3143 3145 3149 3148 3147 3151 3152 3149 3148 3147 3147 3149 3149 3150 3150 3148 3148 3150 3149 3148 3147 3147 3147 3146
3154 3154 3154 3155 3154 3154 3154 3154 3153 3152 3150 3148 3147 3146 3144 3141 3139 3140 3142 3144 3145 3147 3146 3146 3146 3144 3144 3145 3143 3142 3141 3141 3143 3145 3146 3145 3145 3145 3146 3145 3144 3142 3142
3151 3151 3152 3152 3152 3152 3152 3151 3150 3150 3149 3147 3146 3145 3143 3142 3141 3141 3143 3143 3144 3144 3141 3141 3141 3140 3139 3138 3138 3138 3136 3134 3135 3138 3138 3139 3140 3140 3140 3141 3141 3141 3139
3148 3148 3149 3149 3149 3149 3148 3148 3148 3147 3146 3145 3145 3143 3142 3141 3141 3141 3141 3141 3141 3141 3139 3139 3138 3137 3135 3133 3133 3134 3132 3131 3130 3128 3129 3131 3132 3132 3132 3134 3136 3135 3135
3144 3145 3145 3146 3146 3146 3146 3145 3145 3144 3143 3143 3143 3142 3141 3140 3139 3139 3139 3138 3138 3137 3136 3135 3134 3132 3131 3130 3130 3129 3129 3126 3125 3124 3122 3124 3124 3125 3125 3125 3126 3127 3126
3140 3140 3141 3141 3142 3142 3142 3142 3142 3141 3141 3140 3139 3139 3138 3138 3138 3137 3137 3137 3136 3135 3133 3132 3131 3130 3128 3127 3127 3126 3124 3121 3120 3118 3118 3118 3118 3117 3116 3118 3119 3118 3118
3135 3136 3136 3137 3137 3137 3137 3137 3137 3137 3136 3136 3135 3134 3134 3134 3134 3133 3133 3133 3133 3132 3132 3130 3128 3127 3126 3124 3123 3121 3119 3117 3114 3115 3116 3115 3114 3112 3111 3112 3111 3111 3111
3130 3131 3131 3132 3132 3133 3133 3133 3133 3133 3132 3132 3131 3130 3129 3129 3128 3128 3127 3127 3127 3127 3127 3127 3126 3125 3123 3121 3118 3116 3114 3112 3111 3110 3109 3109 3109 3107 3107 3104 3104 3105 3103
3124 3125 3126 3127 3127 3128 3128 3128 3128 3128 3127 3127 3126 3125 3124 3124 3123 3123 3123 3122 3122 3121 3120 3119 3118 3118 3117 3116 3115 3113 3111 3109 3107 3105 3103 3101 3101 3100 3098 3096 3095 3095 3095
3118 3119 3119 3120 3121 3121 3122 3122 3122 3122 3121 3121 3120 3119 3118 3117 3117 3116 3116 3115 3115 3114 3114 3113 3112 3110 3109 3107 3108 3107 3106 3104 3102 3100 3098 3096 3094 3092 3091 3089 3086 3086 3087
3111 3112 3113 3113 3114 3114 3114 3114 3115 3115 3114 3114 3114 3113 3112 3112 3111 3109 3108 3108 3108 3107 3107 3106 3105 3104 3102 3101 3099 3099 3099 3098 3098 3093 3092 3090 3088 3086 3085 3083 3080 3078 3077
3103 3104 3105 3106 3106 3107 3107 3107 3107 3107 3106 3106 3106 3105 3105 3104 3103 3102 3101 3100 3099 3098 3098 3097 3097 3096 3094 3093 3091 3089 3087 3087 3089 3088 3086 3084 3082 3080 3078 3075 3072 3071 3069
3094 3095 3096 3097 3097 3099 3099 3098 3098 3098 3098 3098 3098 3097 3097 3096 3096 3095 3094 3093 3092 3091 3090 3089 3089 3087 3086 3084 3082 3081 3079 3078 3078 3077 3073 3079 3073 3073 3071 3068 3066 3064 3062
3084 3086 3086 3087 3088 3088 3089 3088 3089 3088 3088 3088 3088 3088 3087 3087 3086 3086 3085 3084 3083 3082 3081 3080 3079 3077 3076 3074 3073 3072 3070 3068 3067 3068 3062 3066 3064 3062 3061 3060 3057 3054 3053
3073 3074 3075 3076 3076 3077 3078 3078 3078 3078 3077 3078 3077 3077 3077 3076 3076 3075 3074 3073 3072 3071 3070 3069 3068 3067 3064 3063 3061 3059 3059 3057 3058 3057 3053 3051 3055 3052 3052 3049 3048 3045 3044
3061 3062 3063 3064 3064 3066 3066 3066 3065 3065 3066 3066 3067 3066 3066 3065 3065 3064 3064 3063 3062 3061 3060 3058 3058 3056 3054 3051 3050 3048 3047 3044 3046 3047 3043 3038 3041 3040 3042 3041 3037 3036 3035
3048 3049 3049 3051 3052 3053 3053 3054 3054 3053 3053 3053 3054 3054 3054 3053 3052 3051 3050 3049 3048 3048 3046 3045 3045 3044 3043 3041 3039 3036 3034 3032 3031 3032 3032 3030 3027 3024 3027 3031 3031 3026 3025